Temperature
16 16 16 17 17 17 18 20 21 20 19 18 18 18 17 15 15 13 10 10 10 11 11 12 12 12 12 12 12 12 12 13 13 13 13 13 13 13 13 13 13 13 13 14 14 14 14 14 14
16 16 16 17 17 17 19 20 20 19 17 17 17 17 16 13 12 11 10 10 10 10 11 11 11 12 12 12 12 12 12 12 12 12 12 12 12 13 13 13 13 13 13 13 14 14 14 14 14
15 16 17 17 18 18 19 19 18 16 16 16 16 15 14 12 11 10 10 10 10 10 10 11 11 11 12 12 12 12 12 12 12 12 12 12 12 12 12 13 13 13 13 13 13 14 14 14 14
15 16 17 17 17 18 19 18 17 16 16 16 15 14 12 11 10 10 10 9 10 10 10 11 11 11 11 11 12 12 12 12 12 12 12 12 12 12 12 12 13 13 13 13 13 13 14 14 14
15 17 16 16 17 18 18 18 17 17 16 15 15 14 11 10 9 10 9 9 9 10 10 11 11 11 11 11 11 11 11 11 11 12 12 12 12 12 12 12 12 12 13 13 13 13 13 13 13
16 17 16 16 17 17 18 18 17 17 16 15 15 14 10 9 9 9 9 9 9 9 10 10 10 10 11 11 11 11 11 11 11 11 11 11 11 11 11 12 12 12 12 13 13 13 13 13 13
16 16 16 17 17 17 17 17 16 16 15 14 14 13 10 9 9 9 8 8 9 9 9 10 10 10 10 10 11 11 11 11 11 11 11 11 11 11 11 11 12 12 12 12 12 12 12 12 12
15 15 16 17 17 17 16 16 15 15 14 13 13 12 10 8 8 8 8 8 8 9 9 9 9 10 10 10 10 10 10 10 10 10 10 10 11 11 11 11 11 11 11 12 12 12 12 12 12
15 14 15 16 17 16 15 14 13 13 12 12 11 11 10 9 8 8 7 8 8 8 8 9 9 9 9 9 9 10 10 10 10 10 10 10 10 10 10 10 10 11 11 11 11 11 11 11 11
14 13 14 15 15 15 14 14 13 12 11 11 10 9 9 8 8 7 7 7 7 7 8 8 8 9 9 9 9 9 9 10 10 10 10 10 10 10 10 10 10 10 10 10 10 10 10 11 11
14 13 14 13 13 13 13 13 12 12 11 11 10 8 8 8 7 7 7 7 7 7 7 8 8 8 8 9 9 9 9 9 9 9 9 9 9 9 9 10 10 10 10 10 10 10 10 10 10
13 12 13 12 11 12 12 12 11 11 11 11 11 9 8 7 7 7 6 6 6 7 7 7 7 8 8 8 8 8 9 9 9 9 9 9 9 9 9 9 9 9 9 9 9 9 9 9 10
12 11 11 11 10 10 11 11 10 10 10 10 10 9 8 7 7 6 6 6 6 6 6 7 7 7 7 7 8 8 8 8 8 9 8 9 9 9 9 9 9 9 9 9 9 9 9 9 9
12 11 11 10 10 10 10 10 9 9 9 9 9 8 7 7 6 6 6 6 6 6 6 6 6 7 7 7 7 7 7 8 8 8 8 8 8 8 8 8 8 8 8 8 8 8 8 8 8
11 10 10 10 10 10 9 8 9 9 9 9 8 8 7 6 6 6 6 5 5 5 6 6 6 6 6 6 7 7 7 7 7 7 7 7 7 8 8 8 8 8 8 8 8 8 8 8 8
11 10 10 10 10 9 8 8 10 10 9 8 8 7 7 6 6 5 5 5 5 5 5 5 5 5 6 6 6 6 6 6 7 7 7 7 7 7 7 7 7 7 7 7 7 7 7 7 7
10 10 11 10 10 9 8 8 9 9 9 8 8 7 7 6 6 5 5 5 4 5 5 5 5 5 5 5 5 5 5 6 6 6 6 7 6 6 7 7 7 7 6 7 6 6 7 7 7
10 10 11 11 9 9 8 7 8 9 8 8 8 7 6 6 6 5 5 4 4 4 4 4 4 4 5 5 5 5 5 5 5 5 6 6 6 6 6 6 6 6 6 6 6 6 6 6 6
10 10 10 10 9 8 7 8 8 8 8 7 7 7 7 6 6 5 5 4 4 4 4 4 4 4 4 4 4 4 4 4 5 5 5 5 5 5 5 5 6 5 5 5 5 5 5 5 5
9 8 9 9 8 8 7 7 8 8 7 7 7 7 7 6 6 5 4 4 3 3 3 3 3 4 4 4 4 4 4 4 4 4 4 4 4 5 5 5 5 5 5 5 5 5 5 5 4
8 7 8 7 7 7 6 6 7 8 8 7 7 7 7 6 5 5 4 3 3 3 3 3 3 3 3 3 3 3 3 3 3 3 3 4 4 4 4 4 4 4 4 4 4 4 4 4 4
7 7 7 6 5 5 6 5 7 7 6 6 6 6 6 6 5 4 4 3 3 3 2 2 2 2 2 2 2 3 3 3 3 3 3 3 3 3 3 3 3 3 4 4 4 4 4 4 3
6 6 6 6 5 4 5 4 6 6 6 6 5 6 5 5 4 4 4 3 3 2 2 2 2 2 2 2 2 2 2 2 2 2 2 2 2 3 3 3 3 3 3 3 3 3 3 3 3
5 5 5 5 4 4 5 5 5 6 6 6 5 5 5 4 4 4 3 3 2 2 2 1 1 1 1 1 1 1 1 1 1 1 2 2 2 2 2 2 2 2 2 2 2 2 2 2 2
4 4 4 4 4 4 5 5 5 6 6 5 4 4 4 4 3 3 2 2 2 1 1 1 1 1 0 1 1 1 0 1 1 1 1 1 1 1 1 1 1 1 1 1 1 1 1 1 2
4 4 4 4 5 5 4 4 4 5 4 5 5 4 4 3 3 2 2 1 1 1 1 0 0 0 0 0 0 -0 -0 -0 -0 -0 0 0 0 0 0 0 0 0 0 0 0 0 1 1 1
4 3 4 4 4 3 4 5 5 4 3 3 3 3 2 2 2 2 1 1 1 0 0 -0 -0 -0 -1 -1 -1 -1 -1 -1 -1 -1 -1 -1 -1 -1 -1 -1 -0 -0 -0 -0 -0 -0 -0 -0 -0
2 3 3 3 3 4 5 5 4 3 2 2 1 1 2 2 1 1 1 0 0 -0 -0 -1 -1 -1 -1 -1 -1 -2 -1 -1 -2 -1 -1 -1 -1 -1 -1 -1 -1 -1 -1 -1 -1 -1 -1 -1 -1
1 2 2 3 3 3 3 4 4 3 2 1 1 1 1 1 1 1 0 0 -0 -1 -1 -1 -1 -2 -2 -2 -2 -2 -2 -2 -2 -2 -2 -2 -2 -2 -2 -2 -2 -2 -2 -1 -1 -2 -2 -2 -2
2 2 2 2 2 2 2 3 2 2 1 1 0 1 1 1 0 0 -0 -0 -1 -1 -1 -1 -2 -2 -2 -3 -3 -3 -3 -3 -3 -3 -3 -3 -2 -2 -2 -2 -3 -2 -2 -2 -2 -2 -2 -2 -2
Wind_Speed
14 12 6 2 3 5 7 4 1 3 4 6 7 6 6 6 5 7 4 5 6 6 7 7 9 9 9 9 10 10 10 11 11 11 11 12 12 13 13 14 14 14 14 14 13 13 13 13 13
12 6 3 3 4 6 6 4 2 3 6 5 6 5 5 7 7 7 4 5 5 7 8 7 9 10 10 9 10 10 10 11 11 11 11 12 12 12 12 13 14 14 13 13 13 13 13 12 12
9 6 3 4 4 5 2 2 6 8 8 5 4 5 4 5 7 5 5 3 6 8 9 8 9 10 10 10 10 10 10 10 10 11 11 11 12 12 12 12 13 13 13 13 13 13 13 12 11
4 3 4 4 8 4 2 3 8 8 5 3 4 6 5 6 5 6 6 4 6 8 10 9 10 10 10 11 10 10 10 10 10 10 11 11 11 11 11 11 12 12 13 13 13 13 12 12 11
3 4 5 6 8 4 1 4 7 6 6 3 3 5 6 6 9 8 5 5 6 7 9 9 10 11 11 11 11 11 10 10 10 10 10 11 11 11 11 11 11 11 12 12 12 12 12 12 11
3 4 5 8 7 4 2 2 4 4 5 4 3 4 5 6 7 6 5 5 7 7 9 9 9 10 11 11 11 11 10 10 10 11 11 11 11 11 11 11 11 10 11 11 11 11 11 11 10
3 3 6 7 5 4 3 3 4 4 4 3 2 4 6 5 6 5 4 5 7 8 8 8 8 9 9 10 11 12 10 10 10 10 10 10 10 11 11 10 10 10 10 10 10 10 10 10 10
3 3 5 6 5 4 2 3 2 2 3 3 2 3 5 6 6 5 5 5 5 7 7 7 7 8 8 8 9 10 10 9 9 9 9 9 9 9 10 10 10 10 10 9 9 9 9 9 9
3 3 5 4 4 1 4 3 3 4 4 4 3 5 6 11 8 6 4 4 4 5 5 6 6 7 6 6 7 7 8 8 8 8 8 8 8 8 8 9 9 10 10 9 9 8 8 8 8
2 4 4 3 4 2 4 3 4 3 3 3 4 6 9 9 8 6 5 4 4 4 4 4 5 5 5 5 5 5 6 6 7 7 6 5 6 6 6 7 8 8 9 8 8 8 8 7 6
3 3 2 3 5 3 2 2 2 4 4 4 6 8 9 8 7 6 5 4 4 4 3 3 4 4 4 4 4 4 5 5 6 6 6 5 5 5 6 6 6 6 6 6 6 6 6 6 6
2 2 2 1 3 2 1 2 3 4 2 2 4 10 10 9 7 6 5 4 4 4 3 3 3 3 3 3 3 3 4 4 4 5 5 6 4 4 4 4 4 4 4 4 4 4 5 5 6
5 4 1 1 1 1 2 3 3 5 3 2 5 8 9 8 7 5 5 5 4 4 3 3 3 3 3 3 2 3 4 3 3 4 5 5 5 3 4 4 4 4 4 4 4 4 4 4 4
1 2 3 3 3 3 4 5 5 6 5 5 6 7 8 8 7 6 5 5 5 4 4 3 2 2 2 2 2 2 3 2 3 4 4 4 4 4 3 3 3 3 3 3 3 3 3 3 4
1 3 4 6 6 4 3 7 9 7 6 7 7 7 8 8 7 7 7 6 5 5 5 4 2 2 1 1 1 2 2 2 2 3 3 4 4 4 4 2 2 3 3 3 2 2 3 2 3
4 5 5 5 6 4 4 8 5 7 9 8 7 7 7 8 8 7 7 6 5 5 5 5 3 2 1 1 1 1 1 2 1 2 3 3 3 3 3 2 2 2 2 2 2 1 1 1 1
6 6 7 4 6 5 7 8 4 5 8 9 8 7 7 7 7 7 7 7 6 6 6 5 4 3 2 1 0 0 1 1 1 2 2 2 2 2 2 2 2 2 2 2 1 1 1 1 1
4 6 7 6 5 5 8 10 7 6 8 9 8 7 8 8 8 7 7 6 6 6 6 5 5 4 2 1 1 0 1 1 1 1 1 1 1 2 2 1 1 1 1 1 0 1 1 1 0
6 7 9 6 2 5 10 13 11 8 8 9 8 8 8 8 7 7 7 7 6 6 6 6 5 5 3 2 2 1 1 1 1 1 1 2 2 1 1 1 1 1 0 1 0 0 0 1 1
8 10 10 5 1 4 8 13 12 10 10 10 10 9 9 8 7 7 7 7 6 7 7 6 6 6 5 3 2 1 1 1 1 1 1 2 2 2 2 2 1 1 1 1 1 1 1 0 1
8 8 8 6 4 5 7 10 9 7 7 7 8 7 7 6 7 8 7 7 7 7 7 7 6 6 5 4 2 2 1 0 1 2 1 2 2 2 2 2 2 2 2 2 2 2 2 2 1
8 4 6 6 5 4 3 7 6 6 7 8 7 6 5 5 5 6 7 8 7 7 6 6 6 6 5 5 4 4 3 3 3 2 2 2 3 3 3 3 3 3 2 3 2 2 2 3 2
3 4 5 6 6 7 6 6 8 5 7 6 5 5 4 4 4 5 6 6 6 6 6 5 6 5 5 5 5 5 4 3 2 2 3 3 3 4 4 4 3 3 3 3 3 2 2 2 3
2 3 5 4 3 8 9 8 7 4 5 4 4 3 3 4 4 4 4 5 4 5 5 5 5 5 5 5 5 5 5 4 3 3 4 3 3 3 4 4 4 4 3 3 4 3 3 3 3
2 1 2 2 4 7 4 6 7 3 2 4 4 3 3 3 4 3 3 4 4 5 5 5 5 5 5 5 5 5 5 5 5 4 4 4 3 3 4 4 4 3 3 3 3 3 4 4 4
5 4 4 4 5 4 3 7 5 2 3 4 4 3 3 3 3 3 4 4 4 4 5 5 5 4 5 5 5 5 5 4 4 4 4 4 4 4 4 4 4 4 4 5 4 3 4 3 4
3 5 3 4 6 6 6 5 4 3 3 3 3 3 1 1 2 2 2 3 3 3 3 4 4 4 4 5 4 5 5 4 4 4 4 3 3 3 4 4 4 4 5 5 5 4 4 4 4
3 3 1 3 4 6 7 7 5 3 3 2 1 1 1 1 1 2 2 2 2 2 2 2 3 4 4 4 5 5 4 4 4 4 4 4 3 3 4 4 4 4 4 4 4 4 4 5 5
5 3 4 4 5 5 6 5 2 3 3 2 2 2 2 1 1 1 1 2 2 1 2 2 3 3 4 4 4 4 4 4 4 4 4 4 3 4 4 5 5 5 5 4 5 5 5 6 5
4 6 6 5 6 5 6 7 3 1 1 1 1 2 2 2 1 1 1 1 1 2 2 3 3 4 4 4 4 4 4 3 4 4 4 3 4 4 4 4 5 5 5 5 5 6 6 6 6
Wind_Direction
297 270 248 249 234 232 241 242 227 91 65 43 35 42 50 44 40 111 123 67 67 71 75 67 57 60 67 69 66 69 68 67 65 64 64 64 63 61 63 64 62 61 61 63 65 68 69 68 68
292 271 249 236 236 234 234 211 189 83 87 75 50 40 66 74 74 101 96 55 66 74 74 72 64 65 65 71 70 72 70 69 67 66 64 65 65 63 66 64 62 60 61 62 64 65 66 67 68
278 261 242 224 234 243 255 100 101 86 84 95 93 37 43 79 92 99 94 77 74 74 72 71 71 70 66 69 73 72 71 70 69 67 63 65 65 63 66 65 62 60 62 63 63 65 62 62 66
263 231 245 247 244 247 289 80 99 109 90 71 112 101 77 53 72 88 97 89 82 75 72 73 71 71 70 68 72 73 73 71 70 68 65 65 64 64 64 66 65 62 61 63 63 62 61 59 61
250 242 225 235 243 252 340 81 115 129 136 142 134 121 109 76 79 92 93 84 81 76 73 78 74 71 70 69 69 74 74 74 71 68 67 67 67 67 68 68 66 64 63 62 62 61 61 58 58
247 243 230 229 225 217 195 128 131 136 135 138 145 126 114 109 100 100 92 85 84 84 81 81 77 73 68 66 66 68 71 72 71 68 67 68 69 67 68 69 65 65 66 65 64 62 60 57 56
261 250 247 253 236 225 183 135 154 159 148 144 146 130 122 117 104 105 98 90 88 88 83 80 75 73 71 67 67 61 64 69 70 70 68 68 70 68 66 65 64 63 66 68 67 65 62 58 54
294 283 253 255 243 243 130 114 71 75 110 81 91 149 143 138 115 112 101 90 88 88 83 79 72 71 71 71 68 65 61 65 67 69 67 67 68 67 65 61 60 60 62 67 68 67 63 60 52
283 258 251 260 254 225 116 116 84 42 77 75 60 50 97 123 124 122 114 96 95 90 83 80 75 67 63 72 72 71 64 65 66 66 67 68 67 67 66 61 58 56 56 60 61 63 63 61 50
226 234 248 323 358 61 120 128 135 140 142 150 122 94 109 123 137 146 142 134 120 105 96 80 78 76 68 68 72 69 64 66 63 58 60 68 70 71 67 67 58 53 52 55 53 55 60 55 45
214 234 250 2 11 38 122 138 148 187 198 196 175 149 138 141 150 158 156 146 134 118 97 79 71 78 72 59 71 63 62 63 70 61 46 56 71 67 63 63 53 48 49 44 42 48 48 47 44
223 272 295 335 6 355 191 189 196 215 202 72 135 146 150 159 169 173 169 155 138 128 111 87 71 70 64 61 69 70 60 55 63 68 59 49 50 58 55 60 51 46 39 31 37 38 35 37 42
218 234 247 87 95 308 280 238 238 228 207 105 119 140 159 169 175 175 167 153 142 141 129 112 80 73 62 53 56 71 59 54 60 75 71 61 49 53 47 54 55 42 35 30 29 31 28 32 35
219 203 222 218 207 227 241 243 236 233 191 172 158 163 171 178 178 175 172 167 162 154 145 137 112 85 71 61 54 73 78 70 56 72 77 75 63 52 46 51 48 37 31 26 34 31 30 31 37
234 240 242 224 209 197 218 247 227 217 185 191 185 180 178 182 182 182 180 175 170 163 153 152 150 119 106 76 50 69 80 92 73 71 87 81 70 59 52 56 51 31 29 27 30 43 45 43 38
230 239 240 213 192 162 189 251 216 189 187 199 195 194 190 189 188 186 178 172 167 161 159 162 169 151 136 106 68 67 76 80 88 88 95 93 85 71 64 57 37 32 40 28 14 40 56 47 48
218 238 241 218 189 175 207 249 221 179 194 205 205 201 197 196 194 189 180 173 171 168 163 163 163 165 158 139 143 72 90 71 91 98 92 92 96 87 72 70 34 30 41 29 1 29 58 62 39
236 247 261 244 199 210 230 247 239 207 211 215 212 209 204 204 201 187 179 174 171 170 166 166 167 167 154 147 138 106 101 98 78 93 109 125 127 124 99 91 58 33 49 68 15 31 37 73 26
282 281 279 281 238 232 245 257 255 227 223 226 222 216 212 210 195 181 175 171 170 171 172 174 174 172 161 170 179 185 201 196 189 202 190 183 181 173 147 131 127 81 194 198 196 123 111 88 50
262 273 278 288 295 262 268 267 261 239 229 224 224 221 215 205 191 183 174 170 175 180 181 181 182 179 177 184 194 201 193 221 219 214 233 219 204 190 193 170 176 179 193 211 204 124 164 195 85
255 256 273 283 301 263 281 279 243 233 219 217 218 218 209 199 191 185 179 180 181 187 189 193 187 185 184 180 173 174 157 196 228 210 231 235 226 217 209 202 187 189 187 208 219 187 171 187 192
261 282 279 279 282 266 222 283 250 222 224 219 213 207 204 198 191 186 182 183 187 191 189 190 187 188 186 179 180 182 198 219 233 217 217 231 228 226 224 211 202 200 202 204 224 208 190 178 195
278 319 290 273 264 276 243 255 270 205 226 220 202 192 192 189 186 186 183 183 184 182 183 188 188 190 190 189 189 196 211 223 221 207 208 229 223 217 220 215 203 202 207 207 212 216 201 195 199
300 296 277 258 249 258 232 223 268 214 210 180 161 171 179 176 171 169 169 162 170 174 176 181 189 194 193 196 197 204 210 210 211 221 214 222 219 219 216 224 216 211 208 208 212 212 212 211 208
237 248 287 250 228 243 208 220 246 230 136 150 154 152 155 158 156 159 158 159 167 172 177 182 191 202 200 200 207 212 216 212 213 218 217 219 216 219 217 225 224 220 216 211 210 215 219 223 215
230 222 216 240 258 278 260 236 246 146 114 108 126 132 135 157 162 164 167 167 174 182 184 188 200 211 204 207 216 218 216 215 220 224 220 224 221 219 217 219 222 224 222 218 210 220 221 226 225
237 236 256 275 282 280 252 243 257 158 122 108 106 101 109 164 178 173 164 161 168 182 193 195 201 216 214 213 218 219 217 218 221 225 225 230 228 224 211 217 221 224 224 218 208 217 222 221 231
270 299 217 218 253 261 262 244 237 201 186 172 183 188 212 194 173 170 160 162 174 190 204 209 211 217 221 218 219 227 220 221 219 219 224 230 235 224 211 220 224 223 226 225 215 214 217 220 230
193 224 232 238 244 250 270 261 304 189 175 194 225 235 228 218 196 191 197 188 191 202 215 227 233 232 228 221 221 225 222 224 218 218 222 235 246 229 219 220 220 222 223 223 215 221 222 225 228
216 216 202 221 245 239 263 269 332 44 80 109 333 333 331 297 255 220 210 201 227 228 225 228 237 238 233 221 221 224 224 220 220 225 225 234 240 242 229 223 223 224 226 223 222 223 224 226 229
Height
1489 1491 1493 1496 1499 1499 1495 1486 1481 1485 1488 1492 1494 1495 1498 1504 1508 1519 1520 1518 1518 1519 1520 1521 1523 1524 1525 1526 1527 1528 1529 1530 1530 1531 1532 1532 1533 1533 1534 1534 1535 1535 1536 1536 1537 1537 1538 1538 1539
1489 1491 1495 1496 1498 1501 1493 1484 1484 1487 1491 1494 1497 1499 1501 1507 1511 1514 1515 1517 1518 1518 1519 1520 1522 1523 1525 1526 1527 1528 1529 1530 1530 1531 1532 1532 1533 1533 1534 1535 1535 1536 1536 1537 1537 1538 1538 1539 1540
1489 1492 1495 1493 1493 1494 1488 1483 1485 1490 1493 1495 1499 1502 1505 1510 1512 1513 1515 1516 1517 1518 1518 1520 1522 1523 1524 1526 1527 1528 1529 1530 1530 1531 1532 1533 1533 1533 1534 1535 1535 1536 1536 1537 1537 1538 1539 1540 1541
1491 1493 1493 1493 1492 1487 1484 1485 1487 1491 1495 1497 1500 1504 1508 1512 1512 1512 1514 1515 1516 1517 1518 1519 1521 1522 1524 1525 1526 1527 1528 1529 1530 1531 1532 1532 1533 1533 1534 1535 1535 1536 1536 1537 1538 1538 1539 1540 1541
1491 1491 1492 1493 1489 1486 1484 1485 1488 1491 1495 1498 1500 1504 1509 1511 1511 1512 1513 1514 1515 1516 1517 1519 1520 1522 1523 1524 1526 1527 1528 1529 1529 1530 1531 1532 1533 1533 1534 1534 1535 1536 1536 1537 1538 1538 1539 1540 1541
1491 1489 1492 1492 1487 1485 1485 1486 1489 1491 1495 1498 1500 1504 1508 1510 1510 1511 1512 1514 1514 1515 1517 1518 1520 1521 1522 1524 1525 1526 1527 1528 1529 1530 1531 1532 1532 1533 1534 1534 1535 1535 1536 1537 1537 1538 1539 1540 1541
1490 1488 1488 1485 1485 1485 1485 1486 1489 1491 1494 1498 1500 1503 1507 1508 1509 1510 1511 1513 1514 1515 1516 1517 1519 1520 1522 1523 1524 1525 1526 1527 1528 1529 1530 1531 1532 1533 1533 1534 1534 1535 1536 1536 1537 1538 1539 1540 1541
1488 1488 1485 1483 1484 1485 1485 1487 1490 1492 1495 1498 1500 1502 1504 1506 1507 1509 1511 1512 1513 1514 1515 1516 1518 1519 1521 1522 1523 1524 1526 1527 1528 1529 1530 1530 1531 1532 1533 1533 1534 1535 1535 1536 1537 1538 1539 1540 1541
1487 1491 1488 1484 1483 1484 1486 1488 1491 1493 1495 1498 1499 1501 1501 1503 1505 1507 1509 1510 1511 1513 1514 1515 1517 1518 1520 1521 1522 1523 1525 1526 1527 1528 1529 1530 1530 1531 1532 1533 1534 1534 1535 1536 1536 1537 1538 1539 1540
1487 1490 1486 1484 1483 1484 1486 1489 1491 1494 1495 1498 1500 1501 1501 1502 1504 1505 1507 1508 1509 1511 1512 1514 1515 1517 1518 1520 1521 1522 1523 1524 1526 1527 1528 1529 1530 1530 1531 1532 1533 1533 1534 1535 1536 1537 1538 1539 1539
1485 1486 1485 1485 1485 1486 1487 1489 1491 1492 1494 1495 1496 1498 1499 1501 1502 1504 1505 1507 1508 1509 1511 1512 1514 1515 1517 1518 1519 1521 1522 1523 1524 1526 1527 1528 1529 1530 1530 1531 1532 1532 1533 1534 1535 1536 1537 1537 1538
1485 1485 1485 1486 1487 1487 1488 1489 1491 1491 1492 1493 1493 1495 1496 1498 1500 1501 1503 1505 1506 1508 1509 1510 1512 1513 1515 1516 1517 1519 1520 1521 1523 1524 1525 1526 1527 1528 1529 1530 1530 1531 1532 1533 1533 1534 1535 1536 1537
1484 1485 1486 1487 1487 1488 1489 1489 1490 1489 1490 1491 1492 1493 1494 1496 1498 1500 1502 1503 1504 1506 1506 1508 1510 1511 1513 1514 1515 1517 1518 1519 1521 1522 1523 1524 1525 1526 1527 1528 1529 1530 1531 1531 1532 1533 1534 1535 1536
1483 1484 1485 1486 1487 1488 1488 1488 1489 1485 1488 1489 1491 1492 1493 1494 1496 1497 1499 1500 1501 1503 1504 1506 1507 1509 1510 1512 1513 1514 1516 1517 1518 1520 1521 1522 1523 1524 1526 1527 1528 1528 1529 1530 1531 1531 1533 1533 1534
1484 1485 1484 1483 1484 1485 1488 1487 1484 1482 1485 1486 1488 1489 1490 1492 1493 1494 1495 1497 1498 1500 1501 1503 1505 1506 1508 1509 1511 1512 1513 1515 1516 1517 1519 1520 1521 1522 1523 1525 1526 1526 1527 1528 1529 1530 1531 1532 1533
1483 1483 1483 1479 1480 1483 1488 1484 1478 1479 1481 1482 1484 1486 1487 1488 1490 1491 1493 1494 1496 1497 1498 1500 1502 1503 1505 1506 1508 1509 1511 1512 1513 1515 1516 1517 1518 1520 1521 1522 1523 1524 1525 1526 1527 1528 1529 1529 1530
1483 1483 1478 1478 1477 1480 1484 1480 1475 1476 1477 1478 1480 1481 1483 1485 1486 1488 1489 1491 1492 1494 1495 1497 1499 1500 1502 1503 1505 1507 1508 1509 1511 1512 1513 1515 1516 1517 1518 1519 1520 1522 1522 1523 1524 1525 1526 1527 1528
1480 1478 1474 1474 1475 1478 1480 1476 1473 1474 1474 1474 1476 1477 1479 1480 1481 1483 1485 1487 1489 1490 1492 1494 1495 1497 1499 1500 1502 1503 1505 1506 1508 1509 1510 1512 1513 1514 1515 1516 1517 1518 1519 1520 1521 1522 1523 1524 1525
1477 1476 1475 1473 1474 1476 1476 1472 1469 1470 1471 1470 1471 1472 1474 1475 1478 1480 1481 1483 1485 1487 1488 1489 1491 1493 1495 1496 1498 1499 1500 1502 1504 1506 1507 1508 1509 1511 1512 1513 1514 1515 1516 1517 1518 1519 1520 1521 1522
1478 1479 1476 1475 1475 1476 1474 1469 1464 1464 1464 1464 1466 1467 1468 1471 1473 1475 1477 1478 1480 1482 1484 1485 1487 1489 1491 1492 1494 1496 1497 1498 1500 1502 1503 1504 1506 1507 1508 1509 1510 1511 1512 1514 1515 1516 1516 1517 1519
1477 1479 1478 1478 1477 1475 1476 1468 1461 1457 1457 1459 1460 1462 1464 1466 1468 1470 1472 1473 1476 1477 1479 1481 1483 1485 1487 1489 1491 1492 1493 1494 1496 1497 1498 1500 1502 1503 1504 1505 1506 1507 1508 1509 1511 1512 1512 1513 1515
1477 1477 1477 1478 1482 1480 1476 1476 1456 1454 1455 1455 1456 1458 1460 1462 1464 1466 1468 1469 1471 1474 1476 1478 1480 1481 1483 1484 1486 1487 1488 1488 1490 1492 1494 1495 1497 1498 1500 1501 1502 1503 1504 1505 1507 1508 1509 1510 1511
1477 1477 1478 1478 1480 1482 1475 1479 1459 1453 1454 1453 1453 1455 1457 1459 1461 1463 1464 1466 1468 1471 1473 1475 1476 1477 1479 1480 1481 1483 1484 1485 1486 1488 1489 1490 1492 1493 1494 1496 1497 1498 1500 1501 1502 1503 1504 1505 1506
1478 1479 1478 1478 1480 1483 1470 1473 1459 1452 1448 1450 1451 1453 1455 1457 1458 1460 1462 1464 1466 1468 1469 1471 1472 1473 1475 1476 1477 1479 1480 1481 1481 1482 1483 1485 1486 1488 1489 1491 1492 1493 1495 1496 1497 1498 1500 1501 1502
1479 1483 1483 1481 1481 1472 1463 1466 1457 1447 1445 1447 1450 1452 1453 1455 1456 1457 1459 1460 1462 1464 1465 1466 1468 1469 1470 1471 1473 1474 1475 1476 1477 1478 1479 1480 1481 1482 1483 1485 1487 1488 1490 1491 1492 1493 1495 1496 1497
1478 1478 1482 1479 1470 1463 1466 1463 1452 1446 1445 1446 1448 1451 1452 1453 1454 1455 1456 1458 1459 1460 1462 1463 1464 1465 1466 1467 1468 1469 1470 1471 1472 1473 1474 1475 1476 1477 1479 1480 1482 1483 1485 1486 1487 1488 1489 1490 1492
1477 1477 1475 1478 1473 1474 1460 1452 1448 1445 1446 1447 1449 1450 1451 1452 1453 1453 1454 1455 1456 1457 1458 1459 1459 1460 1461 1462 1463 1464 1465 1466 1467 1468 1469 1470 1471 1472 1473 1475 1476 1478 1479 1481 1482 1483 1484 1485 1486
1478 1477 1479 1479 1475 1469 1455 1449 1449 1449 1448 1449 1449 1450 1450 1451 1451 1451 1452 1452 1453 1453 1454 1455 1456 1455 1456 1457 1458 1459 1460 1461 1462 1463 1464 1464 1465 1467 1468 1469 1471 1472 1473 1475 1476 1477 1478 1480 1480
1478 1479 1476 1474 1472 1469 1462 1453 1443 1443 1445 1447 1448 1448 1448 1449 1448 1448 1449 1449 1450 1450 1450 1451 1451 1451 1451 1452 1452 1453 1454 1455 1456 1457 1458 1459 1460 1461 1462 1463 1465 1466 1467 1469 1470 1471 1473 1474 1475
1471 1471 1473 1476 1471 1467 1465 1456 1445 1443 1444 1446 1447 1447 1447 1447 1446 1446 1446 1446 1446 1446 1446 1446 1446 1446 1446 1447 1447 1448 1449 1450 1450 1451 1452 1453 1454 1455 1456 1457 1459 1460 1461 1462 1464 1465 1466 1468 1469